Location: Bonnesvalyn
(49.1218°N, 3.3177°E)
Time: 19:30:50
(UTC+00:00)

Cosmos 2360 Rocket - Pass Details

Date: 09 February 2023
Orbit: 832 x 846 km, 71.0° (Epoch: 25 March)

Event Time Altitude Azimuth Distance (km) Brightness Sun altitude
Rises 18:11:53 0° 224° (SW) 3,380 6.2 -12.7°
Reaches altitude 10° 18:14:24 10° 230° (SW) 2,452 5.5 -13.2°
Maximum altitude 18:19:51 50° 305° (NW) 1,069 3.1 -14.0°
Drops below altitude 10° 18:25:22 10° 21° (NNE) 2,475 4.4 -14.9°
Enters shadow 18:27:48 - 27° (NNE) 3,368 5.0 -15.3°
